Location: Calvatone
(45.1167°N, 10.4333°E)
Time: 20:08:29
(UTC+00:00)

CSL-04 Debris - Pass Details

Date: 28 January 2023
Orbit: 825 x 846 km, 98.8° (Epoch: 21 March)

Event Time Altitude Azimuth Distance (km) Brightness Sun altitude
Exits shadow 18:37:49 54° 45° (NE) 1,009 4.3 -24.4°
Drops below altitude 10° 18:42:34 10° 354° (N) 2,448 6.7 -25.2°
Sets 18:44:57 0° 350° (N) 3,383 7.5 -25.6°
